{"data":{"norad_id":68488,"epoch":"2026-09-19T07:55:28.441056Z","epoch_age_seconds":169873,"freshness":"FRESH","line1":"1 68488U 26067CA  26262.33019029  .00000806  00000+0  84513-4 0  9998","line2":"2 68488  97.7662 219.1818 0002700  84.5894 275.5633 14.92242071 25763","mean_motion":14.92242071,"eccentricity":0.00027,"inclination_deg":97.7662,"raan_deg":219.1818,"arg_perigee_deg":84.5894,"mean_anomaly_deg":275.5633,"bstar":8.4513e-5,"rev_number":2576,"period_min":96.499088719232,"perigee_km":589.06463314078,"apogee_km":592.82793811502,"semimajor_km":6969.0832856279,"source":"CELESTRAK","updated_at":"2026-09-20T09:00:24.253618Z"}}